CW5193 New Chelsea NF CA current weather conditions

sailwx.info

Wind from 279 at 2 knots gusting 8

Air temperature 7.2° C
Dewpoint 4.9° C

Last reported at 2014-Oct-31 07:43 UTC.
Time now 2014-Oct-31 08:27 UTC

Location: N 48°02' W 053°13'.
View on Google Maps.

See reports from other nearby stations

  
Tides and Currents Weather Stations Pressure Air Temp Water Temp Dewpoint Dewpoint Depression Visibility Wind Speed Wind Dir Waves Ship Positions
date/time (UTC)wind fromknots sea level pressurealtimeterstation pressurevisibilityair tempwater tempwave heightnotes
2014-Oct-31 07:43 279 2 gusting 8 7.2
2014-Oct-31 07:33 290 2 gusting 5 7.8
2014-Oct-31 07:23 257 2 gusting 11 7.8
2014-Oct-31 07:13 311 0 gusting 7 7.8
2014-Oct-31 07:03 283 5 gusting 9 7.8
2014-Oct-31 06:53 287 7.8
2014-Oct-31 06:43 288 0 gusting 10 7.8
2014-Oct-31 06:33 271 4 gusting 10 7.8
2014-Oct-31 06:23 286 7 gusting 11 8.3
2014-Oct-31 06:13 279 2 gusting 4 8.3
2014-Oct-31 06:03 272 4 gusting 6 8.3
2014-Oct-31 05:53 283 1 gusting 6 8.3
2014-Oct-31 05:43 273 4 gusting 8 8.3
2014-Oct-31 05:33 251 4 gusting 6 8.3
2014-Oct-31 05:23 202 2 gusting 5 8.3
2014-Oct-31 05:13 237 3 gusting 12 8.9
2014-Oct-31 05:03 308 3 gusting 8 8.9
2014-Oct-31 04:53 244 2 gusting 5 8.9
2014-Oct-31 04:43 243 2 gusting 5 9.4
2014-Oct-31 04:33 283 3 gusting 6 10.0
2014-Oct-31 04:23 253 3 gusting 10 10.0
2014-Oct-31 04:13 281 6 gusting 9 10.0
2014-Oct-31 04:03 254 2 gusting 8 10.0
2014-Oct-31 03:53 250 3 gusting 7 10.0
2014-Oct-31 03:43 260 2 gusting 9 10.0
2014-Oct-31 03:33 252 3 gusting 9 10.0
2014-Oct-31 03:23 241 4 gusting 7 10.0
2014-Oct-31 03:13 238 6 gusting 9 10.0
2014-Oct-31 03:03 201 5 gusting 9 10.0
2014-Oct-31 02:53 234 5 gusting 11 10.6
2014-Oct-31 02:43 252 3 gusting 11 10.6
2014-Oct-31 02:33 263 5 gusting 10 10.6
2014-Oct-31 02:23 252 5 gusting 14 10.6
2014-Oct-31 02:13 267 6 gusting 13 10.6
2014-Oct-31 02:03 267 6 gusting 14 11.1
2014-Oct-31 01:53 243 7 gusting 13 11.1
2014-Oct-31 01:43 257 7 gusting 11 11.1
2014-Oct-31 01:33 275 5 gusting 9 11.7
2014-Oct-31 01:23 264 6 gusting 13 11.7
2014-Oct-31 01:13 232 7 gusting 17 11.7
2014-Oct-31 01:03 243 7 gusting 13 12.2
2014-Oct-31 00:53 256 9 gusting 15 12.2
2014-Oct-31 00:43 229 10 gusting 15 12.2
2014-Oct-31 00:33 244 7 gusting 14 12.8
2014-Oct-31 00:23 276 9 gusting 13 12.8
2014-Oct-31 00:13 273 5 gusting 13 12.8
2014-Oct-30 23:53 226 10 gusting 15 12.8
2014-Oct-30 23:50 226 10 gusting 15 12.8
2014-Oct-30 23:43 221 10 gusting 16 12.8
2014-Oct-30 23:33 233 7 gusting 13 13.3
2014-Oct-30 23:23 248 8 gusting 17 13.3
2014-Oct-30 23:13 253 6 gusting 16 13.3
2014-Oct-30 23:03 233 9 gusting 18 13.3
2014-Oct-30 22:53 222 12 gusting 20 13.3
2014-Oct-30 22:43 235 10 gusting 18 13.3
2014-Oct-30 22:33 226 6 gusting 16 13.3
2014-Oct-30 22:23 259 9 gusting 17 13.3
2014-Oct-30 22:13 236 11 gusting 17 13.3
2014-Oct-30 22:03 217 9 gusting 14 13.3
2014-Oct-30 21:53 247 7 gusting 16 13.3
2014-Oct-30 21:43 219 13 gusting 20 13.3
2014-Oct-30 21:33 252 13 gusting 19 13.3
2014-Oct-30 21:23 227 13 gusting 21 13.9
2014-Oct-30 21:13 244 9 gusting 19 13.9
2014-Oct-30 21:03 248 12 gusting 19 13.9
2014-Oct-30 20:53 229 11 gusting 20 13.9
2014-Oct-30 20:43 244 9 gusting 16 13.9
2014-Oct-30 20:33 250 9 gusting 21 13.9
2014-Oct-30 20:23 236 10 gusting 17 13.9
2014-Oct-30 20:13 229 12 gusting 20 13.9
2014-Oct-30 20:03 226 13 gusting 24 13.9
2014-Oct-30 19:53 242 11 gusting 21 14.4
2014-Oct-30 19:43 256 13 gusting 24 14.4
2014-Oct-30 19:33 260 12 gusting 26 14.4
2014-Oct-30 19:23 241 12 gusting 24 14.4
2014-Oct-30 19:13 242 19 gusting 30 14.4
2014-Oct-30 19:03 254 17 gusting 27 15.0
2014-Oct-30 18:53 242 14 gusting 27 15.0
2014-Oct-30 18:43 229 13 gusting 25 15.0
2014-Oct-30 18:33 257 13 gusting 27 15.0
2014-Oct-30 18:23 251 17 gusting 28 15.0
2014-Oct-30 18:13 219 18 gusting 27 15.0
2014-Oct-30 18:03 230 14 gusting 26 15.0
2014-Oct-30 17:53 238 17 gusting 28 15.0
2014-Oct-30 17:43 257 19 gusting 30 15.0
2014-Oct-30 17:33 246 14 gusting 25 15.0
2014-Oct-30 17:23 250 16 gusting 27 15.0
2014-Oct-30 17:13 253 20 gusting 30 15.0
2014-Oct-30 17:03 226 17 gusting 28 15.0
2014-Oct-30 16:53 252 13 gusting 31 15.0
2014-Oct-30 16:43 257 18 gusting 29 15.0
2014-Oct-30 16:33 200 15 gusting 30 15.6
2014-Oct-30 16:23 213 15 gusting 29 15.0
2014-Oct-30 16:13 269 17 gusting 28 15.0
2014-Oct-30 16:03 250 12 gusting 30 15.0
2014-Oct-30 15:53 252 14 gusting 32 15.0
2014-Oct-30 15:43 228 13 gusting 30 15.0
2014-Oct-30 15:33 248 20 gusting 29 15.0
2014-Oct-30 15:23 235 15 gusting 28 15.0
2014-Oct-30 15:13 248 14 gusting 27 15.0
2014-Oct-30 15:03 226 13 gusting 26 15.0
2014-Oct-30 14:53 262 15 gusting 33 15.0
2014-Oct-30 14:43 244 17 gusting 32 15.0
2014-Oct-30 14:33 229 16 gusting 30 14.4
2014-Oct-30 14:23 261 17 gusting 31 14.4
2014-Oct-30 14:13 242 13 gusting 28 14.4
2014-Oct-30 14:03 233 12 gusting 30 14.4
2014-Oct-30 13:53 224 15 gusting 23 14.4
2014-Oct-30 13:43 235 13 gusting 24 14.4
2014-Oct-30 13:33 245 16 gusting 25 14.4
2014-Oct-30 13:23 222 14 gusting 24 14.4
2014-Oct-30 13:13 196 11 gusting 26 14.4
2014-Oct-30 13:03 233 15 gusting 26 14.4
2014-Oct-30 12:53 244 14 gusting 25 14.4
2014-Oct-30 12:43 234 13 gusting 24 14.4
2014-Oct-30 12:33 269 13 gusting 26 15.0
2014-Oct-30 12:23 222 13 gusting 25 15.0
2014-Oct-30 12:13 216 15 gusting 26 14.4
2014-Oct-30 12:03 221 12 gusting 23 14.4
2014-Oct-30 11:53 242 15 gusting 23 14.4
2014-Oct-30 11:43 231 13 gusting 22 14.4
2014-Oct-30 11:33 294 11 gusting 23 14.4
2014-Oct-30 11:23 234 9 gusting 25 14.4
2014-Oct-30 11:13 233 10 gusting 27 14.4
2014-Oct-30 11:03 231 16 gusting 26 13.9
2014-Oct-30 10:53 233 19 gusting 31 13.9
2014-Oct-30 10:43 248 15 gusting 22 13.9
2014-Oct-30 10:33 219 13 gusting 25 13.9
2014-Oct-30 10:23 246 14 gusting 26 13.9
2014-Oct-30 10:13 229 14 gusting 25 13.3
2014-Oct-30 10:03 212 16 gusting 26 13.3
2014-Oct-30 09:53 221 11 gusting 24 12.8
2014-Oct-30 09:43 229 13 gusting 21 12.8
2014-Oct-30 09:33 233 12 gusting 20 12.2
2014-Oct-30 09:23 246 12 gusting 19 11.7
2014-Oct-30 09:13 241 13 gusting 20 12.2
2014-Oct-30 09:03 248 14 gusting 21 12.2
2014-Oct-30 08:53 241 14 gusting 26 11.7
2014-Oct-30 08:43 202 11 gusting 20 11.7
2014-Oct-30 08:33 223 9 gusting 21 11.1
2014-Oct-30 08:23 195 8 gusting 16 11.1
2014-Oct-30 08:13 207 10 gusting 13 11.1
2014-Oct-30 08:03 236 9 gusting 19 10.6
2014-Oct-30 07:53 230 6 gusting 13 10.0
2014-Oct-30 07:43 210 7 gusting 14 10.0
2014-Oct-30 07:33 242 9 gusting 13 10.0
2014-Oct-30 07:23 215 4 gusting 10 9.4
2014-Oct-30 07:13 234 6 gusting 13 9.4
2014-Oct-30 07:03 242 7 gusting 12 9.4
2014-Oct-30 06:53 175 3 gusting 14 9.4
2014-Oct-30 06:43 205 8 gusting 13 9.4
2014-Oct-30 06:33 178 12 gusting 23 8.9
2014-Oct-30 06:23 225 8 gusting 13 8.9
2014-Oct-30 06:13 240 6 gusting 15 8.3
2014-Oct-30 06:03 195 6 gusting 15 8.3
2014-Oct-30 05:53 242 6 gusting 13 8.3
2014-Oct-30 05:43 207 11 gusting 19 8.3
2014-Oct-30 05:33 240 8 gusting 14 7.8
2014-Oct-30 05:23 215 10 gusting 15 7.8
2014-Oct-30 05:13 209 11 gusting 18 7.8
2014-Oct-30 05:03 219 7 gusting 17 7.8
2014-Oct-30 04:53 229 9 gusting 16 7.8
2014-Oct-30 04:43 221 9 gusting 16 7.2
2014-Oct-30 04:33 206 9 gusting 12 7.2
2014-Oct-30 04:23 210 4 gusting 12 7.2
2014-Oct-30 04:13 225 6 gusting 20 7.2
2014-Oct-30 04:03 221 9 gusting 16 6.7
2014-Oct-30 03:53 215 8 gusting 13 6.7
2014-Oct-30 03:43 226 8 gusting 14 6.7
2014-Oct-30 03:33 216 4 gusting 11 6.1
2014-Oct-30 03:23 203 7 gusting 11 6.1
2014-Oct-30 03:13 218 7 gusting 13 6.1
2014-Oct-30 03:03 200 6 gusting 13 6.1
2014-Oct-30 02:53 217 6 gusting 13 6.1
2014-Oct-30 02:43 207 6 gusting 13 6.1
2014-Oct-30 02:33 229 6 gusting 11 6.1
2014-Oct-30 02:23 200 6 gusting 11 5.6
2014-Oct-30 02:13 209 3 gusting 11 5.6
2014-Oct-30 02:03 223 3 gusting 6 5.6
2014-Oct-30 01:53 217 3 gusting 8 5.6
2014-Oct-30 01:43 226 2 gusting 7 5.0
2014-Oct-30 01:33 219 5 gusting 8 5.0
2014-Oct-30 01:23 228 1 gusting 6 5.0
2014-Oct-30 01:13 227 2 gusting 4 4.4
2014-Oct-30 01:03 225 2 gusting 5 4.4
2014-Oct-30 00:53 222 3 gusting 4 4.4
2014-Oct-30 00:43 219 2 gusting 4 4.4
2014-Oct-30 00:33 219 2 gusting 4 4.4
2014-Oct-30 00:23 219 2 gusting 5 4.4
2014-Oct-30 00:13 217 3 gusting 6 5.0
2014-Oct-30 00:03 213 4 gusting 6 5.0
2014-Oct-29 23:53 242 3 gusting 5 5.0
2014-Oct-29 23:43 242 2 gusting 5 5.0
2014-Oct-29 23:33 242 2 gusting 6 5.0
2014-Oct-29 23:23 236 2 gusting 5 5.0
2014-Oct-29 23:13 254 2 gusting 5 5.0
2014-Oct-29 23:03 255 3 gusting 5 4.4
2014-Oct-29 22:53 255 2 gusting 5 4.4
2014-Oct-29 22:43 255 0 gusting 3 4.4
2014-Oct-29 22:33 255 1 gusting 2 4.4
2014-Oct-29 22:23 255 3.9
2014-Oct-29 22:13 254 3.9
2014-Oct-29 22:03 255 0 gusting 3 3.9
2014-Oct-29 21:53 255 1 gusting 3 3.9
2014-Oct-29 21:43 255 2 gusting 3 3.9
2014-Oct-29 21:33 255 3.9
2014-Oct-29 21:23 254 3.9
2014-Oct-29 21:13 255 3.9
2014-Oct-29 21:03 255 2 gusting 2 4.4
2014-Oct-29 20:53 254 4.4
2014-Oct-29 20:43 255 1 gusting 3 4.4
2014-Oct-29 20:33 254 2 gusting 3 4.4
2014-Oct-29 20:23 255 0 gusting 1 5.0
2014-Oct-29 20:13 255 5.0
2014-Oct-29 20:03 255 5.0
2014-Oct-29 19:53 255 5.0
2014-Oct-29 19:43 254 2 gusting 6 5.6
2014-Oct-29 19:33 273 0 gusting 3 5.6
2014-Oct-29 19:23 272 1 gusting 3 5.0
2014-Oct-29 19:13 273 2 gusting 8 5.0
2014-Oct-29 19:03 253 2 gusting 8 5.0
2014-Oct-29 18:53 257 3 gusting 5 5.6
2014-Oct-29 18:43 285 1 gusting 8 5.6
2014-Oct-29 18:33 260 2 gusting 7 5.6
2014-Oct-29 18:23 244 2 gusting 5 5.6
2014-Oct-29 18:13 242 1 gusting 5 5.6
2014-Oct-29 18:03 242 1 gusting 6 5.6
2014-Oct-29 17:53 291 2 gusting 8 5.6
2014-Oct-29 17:43 241 4 gusting 6 5.6
2014-Oct-29 17:33 248 2 gusting 11 5.6
2014-Oct-29 17:23 286 3 gusting 7 5.6
2014-Oct-29 17:13 267 6 gusting 10 5.6
2014-Oct-29 17:03 229 6 gusting 9 5.6
2014-Oct-29 16:53 248 5 gusting 9 5.6
2014-Oct-29 16:43 281 3 gusting 4 5.6
2014-Oct-29 16:13 293 1 gusting 6 5.0
2014-Oct-29 16:03 360 5.6
2014-Oct-29 15:53 344 5.6
2014-Oct-29 15:43 355 4 gusting 7 5.6
2014-Oct-29 15:33 350 2 gusting 8 5.0
2014-Oct-29 15:23 355 1 gusting 8 5.0
2014-Oct-29 15:13 345 3 gusting 6 5.0
2014-Oct-29 15:03 351 4 gusting 11 5.0
2014-Oct-29 14:53 360 5 gusting 8 5.0
2014-Oct-29 14:43 321 5 gusting 9 5.0
2014-Oct-29 14:33 349 1 gusting 6 5.0
2014-Oct-29 14:23 009 4 gusting 9 5.0
2014-Oct-29 14:13 347 5 gusting 8 5.0
2014-Oct-29 14:03 345 3 gusting 6 5.0
2014-Oct-29 13:53 015 3 gusting 9 5.0
2014-Oct-29 13:43 017 3 gusting 11 4.4
2014-Oct-29 13:33 328 2 gusting 13 4.4
2014-Oct-29 13:23 346 5 gusting 11 5.0
2014-Oct-29 13:13 021 4 gusting 10 4.4
2014-Oct-29 13:03 348 5 gusting 9 5.0
2014-Oct-29 12:53 033 6 gusting 11 4.4
2014-Oct-29 12:43 360 3 gusting 11 5.0
2014-Oct-29 12:33 350 5 gusting 10 5.0
2014-Oct-29 12:23 333 5 gusting 11 5.0
2014-Oct-29 12:13 355 5 gusting 10 5.0
2014-Oct-29 12:03 349 5 gusting 12 5.0
2014-Oct-29 11:53 342 5 gusting 9 5.0
2014-Oct-29 11:43 005 5 gusting 11 5.0
2014-Oct-29 11:33 034 7 gusting 13 5.0
2014-Oct-29 11:23 009 5 gusting 11 5.0
2014-Oct-29 11:13 022 5 gusting 11 5.0
2014-Oct-29 11:03 355 5 gusting 11 5.0
2014-Oct-29 10:53 348 6 gusting 13 5.0
2014-Oct-29 10:43 026 5 gusting 12 5.0
2014-Oct-29 10:33 038 6 gusting 11 5.0
2014-Oct-29 10:23 347 6 gusting 11 5.0
2014-Oct-29 10:13 332 4 gusting 12 5.6
2014-Oct-29 10:03 005 8 gusting 13 5.6
2014-Oct-29 09:53 030 8 gusting 14 5.6
2014-Oct-29 09:43 040 11 gusting 14 5.6
2014-Oct-29 09:33 044 8 gusting 13 5.6
2014-Oct-29 09:23 355 8 gusting 15 5.6
2014-Oct-29 09:13 040 7 gusting 14 5.6
2014-Oct-29 09:03 017 10 gusting 17 5.6
2014-Oct-29 08:53 039 13 gusting 19 5.6
2014-Oct-29 08:43 013 13 gusting 18 5.6
2014-Oct-29 08:33 015 10 gusting 18 5.6
2014-Oct-29 08:23 024 12 gusting 19 5.6
2014-Oct-29 08:13 030 11 gusting 16 5.6
2014-Oct-29 08:03 029 11 gusting 13 5.6